Location: Peterborough
(44.3091°N, 78.3197°W)
Time: 07:35:34
(UTC-04:00)

Vanguard 2 - Pass Details

Date: 23 March 2023
Orbit: 552 x 2926 km, 32.9° (Epoch: 04 June)

Event Time Altitude Azimuth Distance (km) Brightness Sun altitude
Rises 10:30:36 0° 261° (W) 6,287 11.8 32.8°
Reaches altitude 10° 10:35:28 10° 256° (WSW) 4,965 11.4 33.5°
Maximum altitude 10:47:32 43° 192° (SSW) 2,223 10.6 35.2°
Drops below altitude 10° 10:55:07 10° 124° (SE) 3,149 12.0 36.2°
Sets 10:57:32 0° 117° (ESE) 3,852 12.0 36.5°
